Regional Weather Roundup
Issued by NWS

Home | Current Version | Previous Version | Graphics & Text | Print | Product List | Glossary On
Versions: 1 2 3 4 5 6 7 8 9 10 11 12 13 14 15 16 17 18 19 20 21 22 23 24 25 26 27 28 29 30 31 32 33 34 35 36 37 38 39 40 41 42 43 44 45 46 47 48 49 50
372
ASUS44 KLIX 021201
RWRLA
LOUISIANA WEATHER ROUNDUP
NATIONAL WEATHER SERVICE NEW ORLEANS LA
700 AM CDT TUE SEP 02 2014

NOTE: "FAIR" INDICATES FEW OR NO CLOUDS BELOW 12,000 FEET WITH NO
      SIGNIFICANT WEATHER AND/OR OBSTRUCTIONS TO VISIBILITY.
      SKY/WX - SKY CONDITION AND SIGNIFICANT WEATHER.
      TMP - AIR TEMPERATURE.    DP   - DEWPOINT TEMPERATURE.
      RH  - RELATIVE HUMIDITY.  PRES - PRESSURE.
      HX  - HEAT INDEX.         WCI  - WIND CHILL INDEX.

*  THESE STATIONS ARE NOT NWS OR FAA STATIONS AND ARE NOT UNDER
   NWS QUALITY CONTROL.

LAZ040-048-061>063-065-066-069-021300-
SOUTHEAST LOUISIANA

CITY           SKY/WX    TMP DP  RH WIND       PRES   REMARKS
N.O. AUDUBON   NOT AVBL
N.O. INTL ARPT MOCLDY    80  76  87 SE3       30.05R
6HR MIN TEMP:  78; 6HR MAX TEMP:  80;

N.O. LAKEFRONT MOCLDY    79  76  90 SE3       30.05R
6HR MIN TEMP:  78; 6HR MAX TEMP:  80; 6HR PCP:  0.03;

N.O. DOWNTOWN* FAIR      81  72  74 CALM      30.06R
6HR MIN TEMP:  81; 6HR MAX TEMP:  81;

SLIDELL        MOCLDY    77  74  90 N3        30.05R
6HR MIN TEMP:  76; 6HR MAX TEMP:  78;

BATON ROUGE    CLEAR     75  73  93 NE3       30.04R
6HR MIN TEMP:  75; 6HR MAX TEMP:  77;

BOOTHVILLE     CLEAR     81  78  91 SE3       30.05R
6HR MIN TEMP:  80; 6HR MAX TEMP:  83;

BELLE CHASSE   MOCLDY    77  73  87 CALM      30.04R
6HR MIN TEMP:  77; 6HR MAX TEMP:  80; 6HR PCP: TRACE;

BOGALUSA*        N/A     74  71  89 CALM      30.08R
6HR MIN TEMP:  74; 6HR MAX TEMP:  78;

GALLIANO*      NOT AVBL
NEW ROADS*     FAIR      76  76  98 CALM      30.03S
6HR MIN TEMP:  75; 6HR MAX TEMP:  77;

GONZALES*        N/A     74  74 100 CALM      30.04R
6HR MIN TEMP:  74; 6HR MAX TEMP:  79;

HAMMOND*       NOT AVBL
HOUMA*         PTCLDY    75  72  88 CALM      30.04R
PORT FOURCHON* MOSUNNY   84  75  74 S5        30.06R

$$

LAZ041-044-053-054-021300-
SOUTHWEST LOUISIANA

CITY           SKY/WX    TMP DP  RH WIND       PRES   REMARKS
LAKE CHARLES   PTCLDY    78  77  96 SE3       29.99R
6HR MIN TEMP:  78; 6HR MAX TEMP:  80; 6HR PCP:  0.02;

LAFAYETTE      PTCLDY    76  75  97 CALM      30.02S
6HR MIN TEMP:  76; 6HR MAX TEMP:  79;

PATTERSON        N/A     75  75 100 CALM      30.05R
6HR MIN TEMP:  75; 6HR MAX TEMP:  79;

SALT POINT       N/A     85  77  77 CALM      30.02R HX  95
6HR MIN TEMP:  85; 6HR MAX TEMP:  86; 6HR PCP:  0.07;

NEW IBERIA     CLEAR     77  75  93 E3        30.03R
6HR MIN TEMP:  76; 6HR MAX TEMP:  79; 6HR PCP: TRACE;

CHENAULT AIRPK NOT AVBL

$$

LAZ027-028-021300-
CENTRAL LOUISIANA

CITY           SKY/WX    TMP DP  RH WIND       PRES   REMARKS
FORT POLK      CLOUDY    76  76 100 SE7       30.00R
6HR MIN TEMP:  75; 6HR MAX TEMP:  76;

ALEXANDRIA INT FOG       76  76 100 SE7       29.99R VSB 1/2
6HR MIN TEMP:  74; 6HR MAX TEMP:  77;

ALEXANDRIA     CLOUDY    77  75  93 S3        30.01S FOG
6HR MIN TEMP:  75; 6HR MAX TEMP:  78;


$$

LAZ001-002-021300-
NORTHWEST LOUISIANA

CITY           SKY/WX    TMP DP  RH WIND       PRES   REMARKS
SHREVEPORT     MOCLDY    78  75  90 SE6       29.98R
6HR MIN TEMP:  77; 6HR MAX TEMP:  78;

BARKSDALE AFB  MOCLDY    77  77 100 S9        29.98R
DTN SHREVEPORT MOCLDY    77  75  93 SE6       29.98R
6HR MIN TEMP:  77; 6HR MAX TEMP:  80;


$$

LAZ014-016-021300-
NORTHEAST LOUISIANA

CITY           SKY/WX    TMP DP  RH WIND       PRES   REMARKS
MONROE         CLOUDY    77  75  93 CALM      30.02R
6HR MIN TEMP:  75; 6HR MAX TEMP:  77;

TALLULAH       MOCLDY    76  74  93 S7        30.02R
6HR MIN TEMP:  75; 6HR MAX TEMP:  77;


$$




USA.gov is the U.S. government's official web portal to all federal, state and local government web resources and services.